Hourly Data Report for October 22, 2015

All times are specified in Local Standard Time (LST). Add 1 hour to adjust for Daylight Saving Time where and when it is observed.

PANGNIRTUNG
NUNAVUT

66°08'36.300" N
65°42'40.500" W
22.60 m
2403049
71826
WXP

Download Data

Hourly Data (October 2015)
Hourly Data Report for October 22, 2015
Temp Definition
°C
Dew Point Temp Definition
°C
Rel Hum Definition
%
Wind Dir Definition
10's deg

Wind Spd Definition
km/h
Visibility Definition
km
Stn Press Definition
kPa
Hmdx Definition


Wind Chill Definition


Weather Definition


TIME
00:00 -7.4 -11.0 75 24 3   100.43   -9 LegendNANA
01:00 -7.5 -10.8 77 33 10   100.42   -12 LegendNANA
02:00 -8.0 -10.6 82 20 3   100.41   -10 LegendNANA
03:00 -9.3 -11.7 82 11 4   100.42   -12 LegendNANA
04:00 -8.4 -11.4 79 31 8   100.48   -13 LegendNANA
05:00 -8.2 -10.9 81 10 5   100.50   -11 LegendNANA
06:00 -7.2 -10.5 77 26 16   100.52   -14 LegendNANA
07:00 -7.3 -11.2 74 30 14   100.55   -13 LegendNANA
08:00 -7.9 -11.6 75 30 15   100.58   -14 LegendNANA
09:00 -8.1 -11.7 75 30 20   100.63   -15 LegendNANA
10:00 -8.5 -11.9 77 28 16   100.66   -15 LegendNANA
11:00 -8.6 -12.8 72 30 16   100.71   -15 LegendNANA
12:00 -9.0 -12.0 79 25 25   100.73   -17 LegendNANA
13:00 -9.6 -12.4 80 25 26   100.77   -18 LegendNANA
14:00 -9.3 -12.9 75 24 26   100.82   -18 LegendNANA
15:00 -9.5 -13.1 75 25 22   100.88   -18 LegendNANA
16:00 -10.2 -13.7 76 27 25   100.91   -19 LegendNANA
17:00 -10.6 -14.7 72 30 31   100.97   -20 LegendNANA
18:00 -10.0 -14.6 69 27 25   101.00   -19 LegendNANA
19:00 -9.5 -15.4 62 30 23   101.04   -18 LegendNANA
20:00 -9.8 -15.2 65 29 25   101.08   -19 LegendNANA
21:00 -8.9 -13.7 69 26 26   101.12   -18 LegendNANA
22:00 -9.0 -13.2 71 27 24   101.13   -17 LegendNANA
23:00 -8.7 -13.4 69 27 33   101.08   -18 LegendNANA

Notes on Data Quality.

Legend

  • E = Estimated
  • M = Missing
  • NA = Not Available
  • ‡ = Partner data that is not subject to review by the National Climate Archives
Date modified: